SL-8 DEB, 21250

Orbit data source: Space-Track

SL-8 DEB, 21250 is space debris in LEO originally from a launch on Tue, 12 Feb 1991 UTC launched from the Plesetsk Missile And Space Complex (PKMTR). Debris objects in space refer to the collection of defunct objects orbiting the Earth. Examples of debris include non-operational satellites, rocket bodies, and fragments generated from explosions, collisions, or faulty payload assembly.

Loading next visibility...
Identifier
21250, 1991-009BH
Orbit
LEO
Country
Flag of CISCIS
Related business
Manufacturer
Unknown
Mission
Spacecraft
Bus & Motor
Unknown
Mass
Unknown
Launch date (UTC)
1991-02-12 (35 years ago)
Launch vehicle
Unknown
Launch site
Plesetsk Missile And Space Complex (PKMTR)
Object type
Payload
Rocket body
Debris
Shape & HBR
Unknown shape, 0.1 m
Radar Cross Section
Medium (>0.1 m² and <1 m²)

Expand to show TLE details & history
Last TLE update: 2 days ago

TLE from 2 days ago
0 SL-8 DEB
1 21250U 91009BH  26171.46460269  .00000083  00000-0  93332-3 0  9997
2 21250  74.0610 253.2280 0141254 310.7372 183.0558 12.18909342569753
Epoch: 2026-06-20T11:09Z
TLE epoch observation values (Epoch: 2026-06-20T11:09:01.672Z)
Latitude
44.12125°
Longitude
-18.70836°
Altitude
1,715.958 km
Speed
6.973 km/s
True Right ascension
03h 48m 54s
True Declination
43° 58' 11"
Sunlit
Object was in daylight at epoch
Visualization orbit readout
Latitude
Unknown
Longitude
Unknown
Altitude
Unknown
Speed
Unknown
Apparent Right ascension
Unknown
Apparent Declination
Unknown
Sunlit
N/A
Visualization observer readout
Local Sidereal Time
23:27:08
Azimuth
Unknown
Elevation
Unknown
Doppler factor
Unknown
Orbital elements
Apogee altitude
1,707.79 km
Perigee altitude
1,482.538 km
Semi-major axis
7,973.301 km
Eccentricity
0.01413
Inclination
74.061°
RAAN
253.228°
Arg. of periapsis
310.7372°
True anomaly
182.97101°
Mean anomaly
183.0558°
Eccentric anomaly
183.01326°
Mean motion
3.0485 °/min
Orbital period
118.09 mins
BSTAR
0.00093332
Loading maneuver chart data...
Computing Atmospheric mass density...
Loading historical data...
Loading historical data...
Loading historical data...
Loading historical data...
Loading historical data...
Loading historical data...
Loading historical data...

Documentation

Showing up to 5 results
|